Flag for U.S.A. Weather past 2 weeks in Key West, Florida, U.S.A.

Now
79 °F

Clear.


Feels Like: 83 °F
Forecast: 75 / 85 °F
Wind: 9 mph from Southwest

Location: Key West International Airport

Current Time: Mar 27, 2015 at 4:31:56 AM

Latest Report: Mar 27, 2015 at 3:53 AM


Visibility: 10 mi

Pressure: 29.93 "Hg

Humidity: 88%

Dew point: 75 °F

Location of Key WestLocation

Historic Weather in Key West — Graph

°F

Key West temperature yesterday

Maximum temperature yesterday: 83 °F (at 12:53 PM)
Minimum temperature yesterday: 78 °F (at 4:53 AM)
Average temperature yesterday: 80 °F

Past Weeks' High & Low Weather Summary

 TemperatureHumidityPressure
High83 °F (Mar 16, 1:53 PM)100% (Mar 24, 8:00 AM)30.18 "Hg (Mar 24, 8:00 AM)
Low69 °F (Mar 17, 6:53 AM)56% (Mar 25, 11:53 AM)29.92 "Hg (Mar 26, 6:53 PM)
Average77 °F80%30.06 "Hg
* Reported Mar 12 2:53 AM — Mar 27 2:53 AM, Key West, Weather by CustomWeather, © 2015

Note: Actual official high and low records may vary slightly from our data, if they occured in-between our weather recording intervals... More about our weather records

Advertising

Key West weather history for previous 24 hours

 ConditionsComfort  
Time TempWeatherWind HumidityBarometerVisibility
2:53 AM
Fri, Mar 27
79 °FClear.12 mph88%29.95 "Hg9 mi
1:53 AM80 °FClear.9 mph90%29.96 "Hg10 mi
12:53 AM79 °FClear.10 mph94%29.96 "Hg10 mi
11:53 PM
Thu, Mar 26
80 °FPassing clouds.7 mph90%29.98 "Hg10 mi
10:53 PM80 °FClear.12 mph87%29.97 "Hg10 mi
9:53 PM80 °FClear.13 mph87%29.95 "Hg10 mi
8:53 PM80 °FPassing clouds.12 mph85%29.94 "Hg10 mi
7:53 PM80 °FSunny.10 mph87%29.93 "Hg8 mi
6:53 PM81 °FSunny.8 mph82%29.92 "Hg8 mi
5:53 PM82 °FSunny.8 mph79%29.93 "Hg10 mi
4:53 PM82 °FSunny.10 mph77%29.95 "Hg10 mi
3:53 PM83 °FSunny.15 mph72%29.95 "Hg10 mi
2:53 PM83 °FSunny.18 mph74%29.97 "Hg10 mi
1:53 PM83 °FSunny.16 mph79%30.00 "Hg10 mi
12:53 PM83 °FSunny.15 mph82%30.03 "Hg10 mi
11:53 AM82 °FSunny.15 mph79%30.06 "Hg10 mi
10:53 AM82 °FSunny.13 mph82%30.07 "Hg10 mi
9:53 AM81 °FSunny.10 mph82%30.05 "Hg10 mi
8:53 AM79 °FWarm.N/A88%30.05 "Hg10 mi
7:53 AM78 °FPassing clouds.12 mph87%30.03 "Hg10 mi
6:53 AM78 °FPassing clouds.8 mph84%30.01 "Hg10 mi
5:53 AM78 °FPassing clouds.6 mph84%30.01 "Hg10 mi
4:53 AM78 °FPassing clouds.8 mph84%30.01 "Hg10 mi
Weather by CustomWeather, © 2015

See weather overviewHow to use our weather pages